Regional Weather Roundup
Issued by NWS

Home | Current Version | Previous Version | Graphics & Text | Print | Product List | Glossary On
Versions: 1 2 3 4 5 6 7 8 9 10 11 12 13 14 15 16 17 18 19 20 21 22 23 24 25 26 27 28 29 30 31 32 33 34 35 36 37 38 39 40 41 42 43 44 45 46 47 48 49 50
000
ASUS43 KDTX 311201
RWRMI
MICHIGAN HOURLY REGIONAL WEATHER ROUNDUP
NATIONAL WEATHER SERVICE DETROIT/PONTIAC MI
800 AM EDT FRI JUL 31 2015

NOTE: "FAIR" INDICATES FEW OR NO CLOUDS BELOW 12,000 FEET WITH NO
SIGNIFICANT WEATHER AND/OR OBSTRUCTION TO VISIBILITY.

MIZ047>049-052>055-059>063-066>070-074>076-081>083-311300-
SOUTHEAST LOWER MICHIGAN

CITY           SKY/WX    TMP DP  RH WIND       PRES   REMARKS
ADRIAN         SUNNY     67  59  75 NW6       29.99R
6HR MIN TEMP:  62; 6HR MAX TEMP:  67;

ALMA           SUNNY     67  62  83 SW7       29.94S
ANN ARBOR      SUNNY     68  60  75 W8        29.96S
BAD AXE        SUNNY     65  60  85 SW6       29.91S
6HR MIN TEMP:  58; 6HR MAX TEMP:  65;

CARO           SUNNY     65  61  86 SW3       29.92S
DETROIT CITY   SUNNY     70  58  65 W7        29.94S
6HR MIN TEMP:  68; 6HR MAX TEMP:  74;

DETROIT        SUNNY     70  59  68 W7        29.96R
6HR MIN TEMP:  66; 6HR MAX TEMP:  70;

FLINT          SUNNY     68  59  73 SW6       29.94S
6HR MIN TEMP:  64; 6HR MAX TEMP:  69;

GROSSE ILE     SUNNY     70  61  73 W5        29.94S
HILLSDALE      SUNNY     69  62  79 W6        30.00S
6HR MIN TEMP:  65; 6HR MAX TEMP:  69;

HOWELL         SUNNY     66  60  82 W7        29.97R
6HR MIN TEMP:  61; 6HR MAX TEMP:  67;


CITY           SKY/WX    TMP DP  RH WIND       PRES   REMARKS
JACKSON        SUNNY     66  59  78 W7        29.98S
6HR MIN TEMP:  61; 6HR MAX TEMP:  66;

LAMBERTVILLE   SUNNY     69  59  72 W3        29.98R
6HR MIN TEMP:  65; 6HR MAX TEMP:  72;

LANSING        SUNNY     68  59  73 W9        29.97R
6HR MIN TEMP:  64; 6HR MAX TEMP:  68;

LAPEER         FAIR      67  59  75 W7        29.94S
MASON          SUNNY     65  58  78 CALM      29.97S
MONROE         SUNNY     67  60  77 W5        29.96R
6HR MIN TEMP:  61; 6HR MAX TEMP:  67;

MT. CLEMENS    SUNNY     71  60  67 W10       29.92R
6HR MIN TEMP:  67; 6HR MAX TEMP:  71;

PONTIAC        SUNNY     67  59  75 W7        29.95R
6HR MIN TEMP:  64; 6HR MAX TEMP:  69;

PORT HOPE        N/A     68  62  81 SW9       29.87S
6HR MIN TEMP:  63; 6HR MAX TEMP:  68;

PORT HURON     SUNNY     66  61  82 CALM      29.93R
TRI CITIES     SUNNY     67  60  78 SW7       29.93R
6HR MIN TEMP:  64; 6HR MAX TEMP:  67;

MIDLAND        FAIR      67  58  72 SW6       29.91S
6HR MIN TEMP:  59; 6HR MAX TEMP:  68;

TROY           SUNNY     71  58  64 W9        29.96S
SAGINAW HB     SUNNY     68  61  77 SW8       29.91S
$$
MIZ043>046-050>051-056>058-064>065-071>073-077>080-311300-
SOUTHWEST LOWER MICHIGAN

CITY           SKY/WX    TMP DP  RH WIND       PRES   REMARKS
BATTLE CREEK   SUNNY     70  61  73 W7        30.00R
6HR MIN TEMP:  64; 6HR MAX TEMP:  70;

BENTON HARBOR  SUNNY     73  64  73 W9        30.00R
6HR MIN TEMP:  71; 6HR MAX TEMP:  74;

BIG RAPIDS     SUNNY     68  61  78 W12       29.93S
6HR MIN TEMP:  59; 6HR MAX TEMP:  68;

COLDWATER      SUNNY     65  60  85 W6        30.01R
6HR MIN TEMP:  60; 6HR MAX TEMP:  66;

FREMONT        FAIR      67  64  88 W6        29.94S
HOLLAND        SUNNY     73  62  68 W8        29.98R
6HR MIN TEMP:  67; 6HR MAX TEMP:  74;

GRAND RAPIDS   MOSUNNY   69  61  75 W9        29.97S
6HR MIN TEMP:  65; 6HR MAX TEMP:  69;

IONIA          FAIR      68  61  78 W9        29.95S
6HR MIN TEMP:  63; 6HR MAX TEMP:  68;

KALAMAZOO      SUNNY     69  61  75 MISG      30.00S
6HR MIN TEMP:  63; 6HR MAX TEMP:  69;

LUDINGTON      SUNNY     72  64  76 W8        29.93R
6HR MIN TEMP:  65; 6HR MAX TEMP:  72;

MARSHALL       SUNNY     66  61  82 W3        29.99R
MOUNT PLEASANT SUNNY     70  60  70 W8        29.92S
6HR MIN TEMP:  64; 6HR MAX TEMP:  70;

MUSKEGON       MOSUNNY   73  60  63 W10       29.95S
6HR MIN TEMP:  64; 6HR MAX TEMP:  73;

SOUTH HAVEN    SUNNY     73  63  70 W8        29.99R
$$
MIZ016>042-311300-
NORTHERN LOWER MICHIGAN

CITY           SKY/WX    TMP DP  RH WIND       PRES   REMARKS
ALPENA         SUNNY     66  57  72 SW6       29.85R
6HR MIN TEMP:  60; 6HR MAX TEMP:  66;

BEAVER ISLAND  SUNNY     67  62  84 W13       29.84R
6HR MIN TEMP:  63; 6HR MAX TEMP:  67;

BELLAIRE       MOSUNNY   64  59  83 CALM      29.87S
6HR MIN TEMP:  56; 6HR MAX TEMP:  65;

CADILLAC       PTSUNNY   64  60  90 SW7       29.92S
CHARLEVOIX     PTSUNNY   68  64  84 W8        29.88S
6HR MIN TEMP:  67; 6HR MAX TEMP:  69;

FRANKFORT      SUNNY     69  63  81 W7        29.89S
GAYLORD        SUNNY     62  58  86 W5        29.88S
6HR MIN TEMP:  59; 6HR MAX TEMP:  63;

GRAYLING       SUNNY     65  58  78 SW5       29.89S
6HR MIN TEMP:  61; 6HR MAX TEMP:  65;

HARBOR SPRINGS CLOUDY    67  63  84 SW7       29.85S
HOUGHTON LAKE  SUNNY     66  59  78 W7        29.91R
6HR MIN TEMP:  65; 6HR MAX TEMP:  68;

MANISTEE       MOSUNNY   70  59  68 W12       29.92R
OSCODA         SUNNY     68  58  69 W10       29.86S
PELLSTON       CLOUDY    67  62  84 W5        29.84S
6HR MIN TEMP:  52; 6HR MAX TEMP:  67;

ROGERS CITY    MOSUNNY   67  60  77 W10       29.84S
TRAVERSE CITY  MOSUNNY   69  60  73 W6        29.86S
6HR MIN TEMP:  66; 6HR MAX TEMP:  69;

$$
MIZ007>008-015-311300-
EASTERN UPPER MICHIGAN

CITY           SKY/WX    TMP DP  RH WIND       PRES   REMARKS
KINROSS        SUNNY     61  57  88 W3        29.82S
6HR MIN TEMP:  59; 6HR MAX TEMP:  63;

MACKINAC ISLAN MOSUNNY   67  62  82 W8        29.83R
MUNISING         N/A     69  55  60 W8        29.82R
6HR MIN TEMP:  65; 6HR MAX TEMP:  70;

$$
MIZ004>006-011>014-085-311300-
CENTRAL UPPER MICHIGAN

CITY           SKY/WX    TMP DP  RH WIND       PRES   REMARKS
ESCANABA       SUNNY     63  55  77 W10       29.84R
6HR MIN TEMP:  61; 6HR MAX TEMP:  64;

MENOMINEE      SUNNY     64  55  72 W6        29.88S
6HR MIN TEMP:  63; 6HR MAX TEMP:  64;

SAWYER-GWINN   CLOUDY    61  54  77 W9        29.86R
$$
MIZ001>003-009>011-084-311300-
WESTERN UPPER MICHIGAN

CITY           SKY/WX    TMP DP  RH WIND       PRES   REMARKS
IRON MOUNTAIN  MOSUNNY   63  56  78 W8        29.88R
6HR MIN TEMP:  60; 6HR MAX TEMP:  66;

HOUGHTON       SUNNY     60  54  80 W13       29.84R
6HR MIN TEMP:  58; 6HR MAX TEMP:  61;

COPPER HARBOR    N/A     65  53  65 NW12G20   29.81R
6HR MIN TEMP:  63; 6HR MAX TEMP:  66;

IRONWOOD       SUNNY     63  55  77 W12       29.90R
6HR MIN TEMP:  59; 6HR MAX TEMP:  64;

$$

ABBREVIATIONS USED IN REMARKS
   TC - TEMPERATURE IN CELSIUS
  WCI - WIND CHILL INDEX
   HX - HEAT INDEX
  VSB - VISIBILITY




USA.gov is the U.S. government's official web portal to all federal, state and local government web resources and services.